GW0795 Weather Reports


time (UTC)temp
C
wind
direction
speed
KPH
gust
KPH
rain 1hr
cm
rain 24hr
cm
rain mn
cm
humidity
%
barometer
mb
20260509130027 7 71 0.0 0.0 0.00 0.00 0.00 91 1022.5
20260509125504 7 128 0.0 0.0 0.00 0.00 0.00 91 1022.5
20260509125008 7 130 0.0 0.0 0.00 0.00 0.00 91 1022.6
20260509124520 7 130 0.0 0.0 0.00 0.00 0.00 91 1022.5
20260509124009 7 173 0.0 0.0 0.00 0.00 0.00 91 1022.5
20260509123507 7 173 0.0 0.0 0.00 0.00 0.00 91 1022.5
20260509123021 7 173 0.0 0.0 0.00 0.00 0.00 90 1022.5
20260509122506 7 173 0.0 0.0 0.00 0.00 0.00 91 1022.6
20260509122010 8 173 0.0 0.0 0.00 0.00 0.00 91 1022.6
20260509121510 7 173 0.0 0.0 0.00 0.00 0.00 90 1022.6
20260509121004 7 173 0.0 0.0 0.00 0.00 0.00 90 1022.7
20260509120505 8 173 0.0 0.0 0.00 0.00 0.00 90 1022.6
20260509120013 8 173 0.0 0.0 0.00 0.00 0.00 90 1022.7
20260509115507 8 173 0.0 0.0 0.00 0.00 0.00 90 1022.6
20260509115005 8 173 0.0 0.0 0.00 0.00 0.00 89 1022.6
20260509114516 8 173 0.0 0.0 0.00 0.00 0.00 89 1022.6
20260509114007 8 173 0.0 0.0 0.00 0.00 0.00 89 1022.6
20260509113507 8 173 0.0 0.0 0.00 0.00 0.00 89 1022.6
20260509113017 8 173 0.0 0.0 0.00 0.00 0.00 89 1022.5
20260509112506 8 173 0.0 0.0 0.00 0.00 0.00 89 1022.6
20260509112006 8 173 0.0 0.0 0.00 0.00 0.00 89 1022.7
20260509111526 8 173 0.0 0.0 0.00 0.00 0.00 89 1022.7
20260509111014 8 173 0.0 0.0 0.00 0.00 0.00 89 1022.7
20260509110512 8 173 0.0 0.0 0.00 0.00 0.00 89 1022.7
20260509110007 9 173 0.0 0.0 0.00 0.00 0.00 89 1022.7
20260509105503 9 173 0.0 0.0 0.00 0.00 0.00 88 1022.7
20260509105003 9 173 0.0 0.0 0.00 0.00 0.00 88 1022.8
20260509104511 9 173 0.0 0.0 0.00 0.00 0.00 88 1022.9
20260509104008 9 173 0.0 0.0 0.00 0.00 0.00 88 1022.9
20260509103506 10 173 0.0 0.0 0.00 0.00 0.00 88 1022.9
20260509103019 10 173 0.0 0.0 0.00 0.00 0.00 88 1023.0
20260509102509 10 173 0.0 0.0 0.00 0.00 0.00 87 1022.9
20260509102008 10 173 0.0 0.0 0.00 0.00 0.00 87 1022.9
20260509101531 10 173 0.0 0.0 0.00 0.00 0.00 86 1023.0
20260509101007 10 173 0.0 0.0 0.00 0.00 0.00 86 1022.9
20260509100508 10 173 0.0 0.0 0.00 0.00 0.00 86 1023.0
20260509100031 10 173 0.0 0.0 0.00 0.00 0.00 86 1023.0
20260509095508 10 173 0.0 0.0 0.00 0.00 0.00 85 1023.1
20260509095007 11 173 0.0 0.0 0.00 0.00 0.00 85 1023.2
20260509094528 11 173 0.0 0.0 0.00 0.00 0.00 85 1023.2
20260509094004 11 173 0.0 0.0 0.00 0.00 0.00 85 1023.2
20260509093508 11 173 0.0 0.0 0.00 0.00 0.00 85 1023.2
20260509093014 11 150 0.0 0.0 0.00 0.00 0.00 85 1023.2
20260509092507 11 152 0.0 0.0 0.00 0.00 0.00 85 1023.3
20260509092010 11 153 0.0 0.0 0.00 0.00 0.00 85 1023.4
20260509091522 11 153 0.0 0.0 0.00 0.00 0.00 84 1023.4
20260509091008 11 138 0.0 0.0 0.00 0.00 0.00 85 1023.4
20260509090510 11 138 0.0 1.6 0.00 0.00 0.00 84 1023.4
20260509090035 11 205 0.0 6.4 0.00 0.00 0.00 84 1023.5
20260509085506 11 227 1.6 6.4 0.00 0.00 0.00 85 1023.4
20260509085010 11 189 0.0 3.2 0.00 0.00 0.00 85 1023.4
20260509084527 11 189 1.6 3.2 0.00 0.00 0.00 84 1023.4
20260509084008 11 208 0.0 3.2 0.00 0.00 0.00 84 1023.4
20260509083509 11 172 0.0 3.2 0.00 0.00 0.00 84 1023.5
20260509083044 11 172 0.0 3.2 0.00 0.00 0.00 84 1023.4
20260509082509 11 172 0.0 3.2 0.00 0.00 0.00 85 1023.4
20260509082006 11 186 0.0 3.2 0.00 0.00 0.00 84 1023.4
20260509081518 11 186 0.0 3.2 0.00 0.00 0.00 84 1023.3
20260509081006 11 186 0.0 3.2 0.00 0.00 0.00 84 1023.3
20260509080510 11 186 1.6 3.2 0.00 0.00 0.00 84 1023.3
20260509080025 11 220 0.0 3.2 0.00 0.00 0.00 84 1023.3
20260509075507 11 208 0.0 3.2 0.00 0.00 0.00 84 1023.2
20260509075008 11 219 1.6 3.2 0.00 0.00 0.00 84 1023.2
20260509074508 11 190 0.0 3.2 0.00 0.00 0.00 84 1023.1
20260509074003 11 190 1.6 3.2 0.00 0.00 0.00 84 1023.1
20260509073503 11 192 0.0 3.2 0.00 0.00 0.00 84 1023.2
20260509073020 11 192 0.0 3.2 0.00 0.00 0.00 84 1023.1
20260509072507 11 192 0.0 3.2 0.00 0.00 0.00 84 1023.2
20260509072007 11 192 0.0 3.2 0.00 0.00 0.00 84 1023.1
20260509071518 11 174 0.0 4.8 0.00 0.00 0.00 84 1023.1
20260509071006 11 231 0.0 4.8 0.00 0.00 0.00 84 1023.0
20260509070506 11 228 0.0 4.8 0.00 0.00 0.00 85 1023.1
20260509070020 10 211 0.0 0.0 0.00 0.00 0.00 85 1023.1
20260509065500 10 211 0.0 0.0 0.00 0.00 0.00 85 1023.0
20260509065004 10 211 0.0 0.0 0.00 0.00 0.00 84 1023.0
20260509064504 10 211 0.0 0.0 0.00 0.00 0.00 85 1023.0
20260509064004 10 211 0.0 0.0 0.00 0.00 0.00 84 1023.0
20260509063505 10 211 0.0 0.0 0.00 0.00 0.00 85 1022.9
20260509063018 10 211 0.0 0.0 0.00 0.00 0.00 85 1022.9
20260509062504 10 211 0.0 0.0 0.00 0.00 0.00 84 1022.9
20260509062007 10 211 0.0 0.0 0.00 0.00 0.00 84 1022.9
20260509061517 10 211 0.0 0.0 0.00 0.00 0.00 83 1022.9
20260509061006 10 211 0.0 0.0 0.00 0.00 0.00 84 1022.9
20260509060506 10 211 0.0 0.0 0.00 0.00 0.00 84 1022.8
20260509060017 10 211 0.0 0.0 0.00 0.00 0.00 83 1022.8
20260509055509 10 211 0.0 0.0 0.00 0.00 0.00 82 1022.8
20260509055007 10 211 0.0 0.0 0.00 0.00 0.00 83 1022.9
20260509054522 10 211 0.0 0.0 0.00 0.00 0.00 83 1022.8
20260509054009 10 211 0.0 0.0 0.00 0.00 0.00 82 1022.8
20260509053504 10 211 0.0 0.0 0.00 0.00 0.00 81 1022.9
20260509053004 11 211 0.0 0.0 0.00 0.00 0.00 81 1022.8
20260509052504 11 211 0.0 0.0 0.00 0.00 0.00 81 1022.8
20260509052004 11 211 0.0 0.0 0.00 0.00 0.00 80 1022.8
20260509051512 11 211 0.0 0.0 0.00 0.00 0.00 80 1022.8
20260509051004 11 211 0.0 0.0 0.00 0.00 0.00 79 1022.8
20260509050508 11 213 0.0 3.2 0.00 0.00 0.00 79 1022.8
20260509050020 11 213 0.0 3.2 0.00 0.00 0.00 78 1022.8
20260509045515 11 154 0.0 3.2 0.00 0.00 0.00 78 1022.8
20260509045006 11 189 0.0 0.0 0.00 0.00 0.00 79 1022.8
20260509044522 11 199 0.0 0.0 0.00 0.00 0.00 78 1022.7
20260509044011 11 199 0.0 0.0 0.00 0.00 0.00 78 1022.7
20260509043508 11 199 0.0 0.0 0.00 0.00 0.00 77 1022.7
20260509043024 11 199 0.0 0.0 0.00 0.00 0.00 77 1022.7
20260509042508 11 199 0.0 0.0 0.00 0.00 0.00 77 1022.8
20260509042003 11 199 0.0 0.0 0.00 0.00 0.00 76 1022.7
20260509041506 11 199 0.0 0.0 0.00 0.00 0.00 76 1022.7
20260509041004 11 199 0.0 0.0 0.00 0.00 0.00 76 1022.7
20260509040507 12 199 0.0 0.0 0.00 0.00 0.00 75 1022.6
20260509040025 12 188 0.0 0.0 0.00 0.00 0.00 75 1022.5
20260509035507 12 268 0.0 0.0 0.00 0.00 0.00 75 1022.4
20260509035008 12 268 0.0 0.0 0.00 0.00 0.00 75 1022.3
20260509034518 12 268 0.0 0.0 0.00 0.00 0.00 74 1022.2
20260509034008 12 268 0.0 0.0 0.00 0.00 0.00 74 1022.1
20260509033506 12 275 0.0 0.0 0.00 0.00 0.00 74 1022.2
20260509033018 12 275 0.0 0.0 0.00 0.00 0.00 73 1022.2
20260509032511 12 275 0.0 0.0 0.00 0.00 0.00 72 1022.2
20260509032012 13 275 0.0 0.0 0.00 0.00 0.00 71 1021.9
20260509031547 13 246 0.0 0.0 0.00 0.00 0.00 71 1021.8
20260509031012 13 246 0.0 0.0 0.00 0.00 0.00 70 1021.8
20260509030506 13 265 0.0 0.0 0.00 0.00 0.00 69 1021.8
20260509030012 13 188 0.0 1.6 0.00 0.00 0.00 69 1021.8
20260509025503 13 188 0.0 4.8 0.00 0.00 0.00 68 1021.7
20260509025007 13 208 0.0 4.8 0.00 0.00 0.00 67 1021.7
20260509024514 13 218 0.0 3.2 0.00 0.00 0.00 66 1021.7
20260509024008 14 208 0.0 3.2 0.00 0.00 0.00 66 1021.7
20260509023509 14 175 0.0 3.2 0.00 0.00 0.00 66 1021.8
20260509023024 14 175 0.0 6.4 0.00 0.00 0.00 66 1021.7
20260509022507 14 189 1.6 6.4 0.00 0.00 0.00 66 1021.7
20260509022006 14 204 1.6 4.8 0.00 0.00 0.00 65 1021.7
20260509021534 14 195 1.6 11.3 0.00 0.00 0.00 65 1021.7
20260509021010 14 218 1.6 11.3 0.00 0.00 0.00 65 1021.7
20260509020508 14 219 3.2 11.3 0.00 0.00 0.00 64 1021.7
20260509020024 14 213 1.6 11.3 0.00 0.00 0.00 63 1021.7
20260509015509 14 229 3.2 11.3 0.00 0.00 0.00 63 1021.8
20260509015010 15 205 3.2 9.7 0.00 0.00 0.00 62 1021.8
20260509014511 15 206 1.6 3.2 0.00 0.00 0.00 62 1021.8
20260509014010 15 235 1.6 3.2 0.00 0.00 0.00 61 1021.6
20260509013507 15 227 0.0 3.2 0.00 0.00 0.00 62 1021.5
20260509013016 15 216 0.0 6.4 0.00 0.00 0.00 61 1021.5
20260509012510 15 216 1.6 9.7 0.00 0.00 0.00 61 1021.7
20260509012010 15 225 0.0 9.7 0.00 0.00 0.00 61 1021.6
20260509011523 15 156 0.0 9.7 0.00 0.00 0.00 61 1021.6
20260509011006 15 234 1.6 8.0 0.00 0.00 0.00 60 1021.6
20260509010509 15 142 0.0 3.2 0.00 0.00 0.00 61 1021.7
20260509010022 15 310 0.0 3.2 0.00 0.00 0.00 59 1021.7
20260509005511 15 223 1.6 6.4 0.00 0.00 0.00 60 1021.7
20260509005011 15 212 1.6 6.4 0.00 0.00 0.00 59 1021.8
20260509004536 15 213 1.6 6.4 0.00 0.00 0.00 60 1021.7
20260509004016 15 211 0.0 6.4 0.00 0.00 0.00 59 1021.7
20260509003506 15 209 1.6 11.3 0.00 0.00 0.00 59 1021.7
20260509003014 15 205 3.2 11.3 0.00 0.00 0.00 58 1021.8
20260509002507 15 203 1.6 6.4 0.00 0.00 0.00 58 1021.8
20260509002010 15 209 1.6 6.4 0.00 0.00 0.00 59 1021.8
20260509001505 15 208 1.6 12.9 0.00 0.00 0.00 59 1021.8
20260509001004 15 227 4.8 12.9 0.00 0.00 0.00 59 1021.8
20260509000503 15 192 3.2 9.7 0.00 0.00 0.00 58 1021.8
20260509000004 15 213 1.6 8.0 0.00 0.00 0.00 59 1021.7
20260508235505 15 254 1.6 3.2 0.00 0.00 0.00 58 1021.7
20260508235006 15 238 1.6 4.8 0.00 0.00 0.00 57 1021.7
20260508234512 15 281 0.0 11.3 0.00 0.00 0.00 58 1021.7
20260508234003 16 205 1.6 11.3 0.00 0.00 0.00 54 1021.7
20260508233508 16 261 3.2 11.3 0.00 0.00 0.00 55 1021.6
20260508233012 16 294 1.6 9.7 0.00 0.00 0.00 55 1021.7
20260508232505 16 242 3.2 9.7 0.00 0.00 0.00 54 1021.6
20260508232009 16 227 1.6 6.4 0.00 0.00 0.00 54 1021.6
20260508231515 16 298 3.2 12.9 0.00 0.00 0.00 54 1021.7
20260508231008 16 161 1.6 12.9 0.00 0.00 0.00 55 1021.7
20260508230508 16 140 3.2 11.3 0.00 0.00 0.00 56 1021.8
20260508230004 16 207 3.2 12.9 0.00 0.00 0.00 53 1021.8
20260508225504 16 196 3.2 12.9 0.00 0.00 0.00 54 1021.7
20260508225004 16 153 1.6 14.5 0.00 0.00 0.00 54 1021.7
20260508224508 16 173 6.4 14.5 0.00 0.00 0.00 53 1021.7
20260508224003 16 213 1.6 11.3 0.00 0.00 0.00 53 1021.8
20260508223503 16 248 1.6 11.3 0.00 0.00 0.00 54 1021.9
20260508223018 16 287 0.0 14.5 0.00 0.00 0.00 54 1021.9
20260508222503 16 147 3.2 16.1 0.00 0.00 0.00 53 1021.8
20260508222012 16 267 6.4 16.1 0.00 0.00 0.00 53 1021.8
20260508221516 16 205 4.8 22.5 0.00 0.00 0.00 56 1021.8
20260508221008 16 205 9.7 20.9 0.00 0.00 0.00 55 1021.8
20260508220507 16 232 1.6 6.4 0.00 0.00 0.00 54 1021.8
20260508220019 16 196 3.2 11.3 0.00 0.00 0.00 56 1021.8
20260508215516 16 226 3.2 11.3 0.00 0.00 0.00 54 1021.8
20260508215009 16 153 4.8 14.5 0.00 0.00 0.00 54 1021.9
20260508214506 16 239 3.2 14.5 0.00 0.00 0.00 53 1021.8
20260508214003 16 240 3.2 14.5 0.00 0.00 0.00 53 1021.8
20260508213504 16 201 1.6 16.1 0.00 0.00 0.00 53 1021.9
20260508213018 16 9 3.2 16.1 0.00 0.00 0.00 56 1021.9
20260508212502 15 219 4.8 14.5 0.00 0.00 0.00 57 1021.8
20260508212007 16 175 3.2 14.5 0.00 0.00 0.00 54 1021.9
20260508211513 15 225 3.2 14.5 0.00 0.00 0.00 58 1021.9
20260508211008 15 191 6.4 12.9 0.00 0.00 0.00 56 1021.9
20260508210507 15 239 4.8 16.1 0.00 0.00 0.00 58 1021.9
20260508210027 15 200 3.2 16.1 0.00 0.00 0.00 60 1021.8
20260508205512 15 200 1.6 11.3 0.00 0.00 0.00 57 1021.8
20260508205009 16 228 4.8 16.1 0.00 0.00 0.00 57 1021.7
20260508204528 15 183 3.2 17.7 0.00 0.00 0.00 59 1021.6
20260508204010 15 167 4.8 17.7 0.00 0.00 0.00 60 1021.6
20260508203503 15 172 3.2 16.1 0.00 0.00 0.00 57 1021.6
20260508203008 14 350 1.6 16.1 0.00 0.00 0.00 58 1021.6
20260508202504 15 172 6.4 16.1 0.00 0.00 0.00 60 1021.5
20260508202003 15 192 3.2 16.1 0.00 0.00 0.00 59 1021.5
20260508201514 13 221 1.6 16.1 0.00 0.00 0.00 62 1021.5
20260508201006 13 198 3.2 19.3 0.00 0.00 0.00 62 1021.6
20260508200504 13 229 4.8 19.3 0.00 0.00 0.00 61 1021.6
20260508200023 13 187 4.8 19.3 0.00 0.00 0.00 61 1021.5
20260508195511 13 207 6.4 12.9 0.00 0.00 0.00 60 1021.5
20260508195008 13 225 1.6 6.4 0.00 0.00 0.00 60 1021.5
20260508194525 13 277 1.6 6.4 0.00 0.00 0.00 60 1021.4
20260508194008 13 255 3.2 8.0 0.00 0.00 0.00 61 1021.5
20260508193508 13 181 1.6 12.9 0.00 0.00 0.00 62 1021.6
20260508193025 13 202 4.8 20.9 0.00 0.00 0.00 62 1021.5
20260508192511 13 241 3.2 20.9 0.00 0.00 0.00 64 1021.4
20260508192006 13 211 6.4 17.7 0.00 0.00 0.00 62 1021.3
20260508191509 14 304 3.2 14.5 0.00 0.00 0.00 62 1021.4
20260508191003 13 202 1.6 6.4 0.00 0.00 0.00 65 1021.5
20260508190504 13 237 3.2 17.7 0.00 0.00 0.00 65 1021.4
20260508190018 12 238 3.2 17.7 0.00 0.00 0.00 68 1021.5
20260508185506 12 169 6.4 16.1 0.00 0.00 0.00 68 1021.5
20260508185007 12 190 4.8 14.5 0.00 0.00 0.00 67 1021.5
20260508184522 12 213 3.2 11.3 0.00 0.00 0.00 66 1021.5
20260508184006 12 246 3.2 11.3 0.00 0.00 0.00 66 1021.5
20260508183512 12 245 3.2 8.0 0.00 0.00 0.00 67 1021.5
20260508183030 12 222 1.6 9.7 0.00 0.00 0.00 69 1021.5
20260508182509 12 141 1.6 9.7 0.00 0.00 0.00 69 1021.4
20260508182008 12 229 1.6 9.7 0.00 0.00 0.00 68 1021.3
20260508181525 12 201 1.6 9.7 0.00 0.00 0.00 68 1021.2
20260508181013 12 247 1.6 9.7 0.00 0.00 0.00 68 1021.0
20260508180509 12 236 1.6 17.7 0.00 0.00 0.00 69 1020.9
20260508180019 12 303 4.8 17.7 0.00 0.00 0.00 68 1020.8
20260508175507 12 227 3.2 14.5 0.00 0.00 0.00 70 1020.8
20260508175006 12 155 4.8 17.7 0.00 0.00 0.00 69 1020.8
20260508174518 12 185 4.8 17.7 0.00 0.00 0.00 70 1020.9
20260508174009 11 219 3.2 16.1 0.00 0.00 0.00 70 1020.8
20260508173508 11 206 4.8 14.5 0.00 0.00 0.00 71 1020.8
20260508173021 11 224 4.8 14.5 0.00 0.00 0.00 72 1020.6
20260508172514 11 256 6.4 12.9 0.00 0.00 0.00 73 1020.5
20260508172012 11 213 1.6 12.9 0.00 0.00 0.00 73 1020.4
20260508171529 11 231 3.2 9.7 0.00 0.00 0.00 72 1020.3
20260508171013 11 234 0.0 9.7 0.00 0.00 0.00 73 1020.3
20260508170508 11 188 1.6 11.3 0.00 0.00 0.00 74 1020.1
20260508170028 11 215 3.2 11.3 0.00 0.00 0.00 73 1020.2
20260508165509 11 217 1.6 6.4 0.00 0.00 0.00 77 1020.2
20260508165008 11 180 0.0 3.2 0.00 0.00 0.00 76 1020.1
20260508164516 10 205 0.0 8.0 0.00 0.00 0.00 75 1020.2
20260508164011 10 244 1.6 8.0 0.00 0.00 0.00 74 1020.1
20260508163506 10 179 1.6 8.0 0.00 0.00 0.00 74 1020.1
20260508163029 11 161 3.2 8.0 0.00 0.00 0.00 73 1020.1
20260508162508 11 266 1.6 8.0 0.00 0.00 0.00 74 1020.1
20260508162009 11 189 0.0 6.4 0.00 0.00 0.00 74 1020.0
20260508161524 11 195 1.6 6.4 0.00 0.00 0.00 74 1019.9
20260508161009 11 266 1.6 6.4 0.00 0.00 0.00 75 1019.9
20260508160508 11 223 1.6 8.0 0.00 0.00 0.00 74 1019.9
20260508160026 11 197 3.2 8.0 0.00 0.00 0.00 75 1019.9
20260508155516 11 215 3.2 8.0 0.00 0.00 0.00 73 1019.9
20260508155008 10 231 3.2 9.7 0.00 0.00 0.00 74 1019.9
20260508154528 10 237 3.2 9.7 0.00 0.00 0.00 74 1019.9
20260508154013 11 210 4.8 11.3 0.00 0.00 0.00 75 1019.9
20260508153513 10 185 4.8 11.3 0.00 0.00 0.00 75 1019.8
20260508153018 10 159 3.2 12.9 0.00 0.00 0.00 76 1019.9
20260508152508 10 213 4.8 12.9 0.00 0.00 0.00 76 1020.0
20260508152011 11 212 4.8 9.7 0.00 0.00 0.00 74 1020.1
20260508151504 11 208 1.6 8.0 0.00 0.00 0.00 76 1020.1
20260508151004 11 198 3.2 16.1 0.00 0.00 0.00 77 1020.1
20260508150501 10 222 4.8 16.1 0.00 0.00 0.00 76 1020.0
20260508150018 10 225 4.8 11.3 0.00 0.00 0.00 78 1020.0
20260508145506 10 209 3.2 11.3 0.00 0.00 0.00 78 1019.8
20260508145007 10 182 4.8 12.9 0.00 0.00 0.00 80 1019.8
20260508144510 10 190 3.2 12.9 0.00 0.00 0.00 80 1019.7
20260508144006 10 225 3.2 8.0 0.00 0.00 0.00 81 1019.6
20260508143509 9 134 1.6 8.0 0.00 0.00 0.00 82 1019.5
20260508143017 9 217 1.6 12.9 0.00 0.00 0.00 82 1019.5
20260508142507 9 210 1.6 12.9 0.00 0.00 0.00 82 1019.4
20260508142007 9 220 3.2 9.7 0.00 0.00 0.00 82 1019.3
20260508141523 9 200 4.8 9.7 0.00 0.00 0.00 83 1019.2
20260508141009 9 221 1.6 9.7 0.00 0.00 0.00 84 1019.1
20260508140511 8 198 3.2 11.3 0.00 0.00 0.00 84 1019.1
20260508140005 8 194 3.2 11.3 0.00 0.00 0.00 84 1018.9
20260508135503 9 235 3.2 11.3 0.00 0.00 0.00 84 1018.8
20260508135001 9 227 4.8 11.3 0.00 0.00 0.00 84 1018.7
20260508134510 9 224 3.2 11.3 0.00 0.00 0.00 84 1018.8
20260508134008 9 213 4.8 9.7 0.00 0.00 0.00 84 1018.6
20260508133510 9 205 1.6 8.0 0.00 0.00 0.00 84 1018.6
20260508133016 9 186 1.6 9.7 0.00 0.00 0.00 84 1018.4
20260508132506 9 217 3.2 9.7 0.00 0.00 0.00 84 1018.4
20260508132010 9 223 1.6 11.3 0.00 0.00 0.00 84 1018.2
20260508131519 9 172 4.8 17.7 0.00 0.00 0.00 84 1018.2
20260508131012 9 209 4.8 17.7 0.00 0.00 0.00 84 1018.2
20260508130508 9 188 3.2 9.7 0.00 0.00 0.00 85 1018.2